CT1OY Oeiras PT current weather conditions

sailwx.info

Wind from 132 at 0 knots

Air temperature 28.9° C
Dewpoint 16.4° C

Last reported at 2016-Jul-29 10:40 UTC.
Time now 2016-Jul-29 12:07 UTC

Location: N 38°44' W 009°17'.
View on Google Maps.

See reports from other nearby stations

  
Tides and Currents Weather Stations Pressure Air Temp Water Temp Dewpoint Dewpoint Depression Visibility Wind Speed Wind Dir Waves Ship Positions
date/time (UTC)wind fromknots sea level pressurealtimeterstation pressurevisibilityair tempwater tempwave heightnotes
2016-Jul-29 11:40 246 28.3
2016-Jul-29 11:30 285 28.9
2016-Jul-29 11:10 198 28.3
2016-Jul-29 10:40 132 0 28.9
2016-Jul-29 10:10 124 29.4
2016-Jul-29 10:00 260 29.4
2016-Jul-29 09:50 266 29.4
2016-Jul-29 09:20 013 28.9
2016-Jul-29 09:10 335 28.3
2016-Jul-29 09:00 348 27.8
2016-Jul-29 08:50 039 28.3
2016-Jul-29 08:40 074 27.8
2016-Jul-29 08:30 096 27.2
2016-Jul-29 07:50 006 23.9
2016-Jul-29 07:30 316 22.8
2016-Jul-29 07:20 316 21.7
2016-Jul-29 07:00 307 20.0
2016-Jul-29 06:40 315 19.4
2016-Jul-29 06:30 335 19.4
2016-Jul-29 06:20 290 18.9
2016-Jul-29 05:40 279 18.9
2016-Jul-29 05:30 281 18.9
2016-Jul-29 05:20 280 19.4
2016-Jul-29 05:10 278 19.4
2016-Jul-29 04:40 276 18.9
2016-Jul-29 04:30 280 18.9
2016-Jul-29 04:20 269 18.9
2016-Jul-29 04:10 271 19.4
2016-Jul-29 04:00 281 20.0
2016-Jul-29 03:50 267 20.0
2016-Jul-29 03:40 284 20.0
2016-Jul-29 03:30 302 20.0
2016-Jul-29 02:30 314 20.0
2016-Jul-29 02:20 278 20.0
2016-Jul-29 01:50 302 20.0
2016-Jul-29 01:00 280 20.6
2016-Jul-29 00:50 275 20.6
2016-Jul-29 00:40 276 20.6
2016-Jul-29 00:20 264 20.6
2016-Jul-29 00:10 293 20.6
2016-Jul-29 00:00 289 20.6
2016-Jul-28 23:50 295 20.0
2016-Jul-28 23:40 270 20.6
2016-Jul-28 23:20 274 20.6
2016-Jul-28 23:10 294 20.6
2016-Jul-28 23:00 333 20.0
2016-Jul-28 22:50 322 20.0
2016-Jul-28 22:30 269 20.6
2016-Jul-28 22:10 266 20.6
2016-Jul-28 22:00 319 20.0
2016-Jul-28 21:50 301 20.0
2016-Jul-28 21:40 006 20.0
2016-Jul-28 21:10 053 20.6
2016-Jul-28 20:40 058 21.1
2016-Jul-28 20:20 359 21.1
2016-Jul-28 20:10 069 21.7
2016-Jul-28 20:00 049 22.2
2016-Jul-28 19:50 259 22.2
2016-Jul-28 19:40 317 22.8
2016-Jul-28 19:20 283 23.3
2016-Jul-28 19:00 006 24.4
2016-Jul-28 18:50 266 25.6
2016-Jul-28 18:40 059 26.1
2016-Jul-28 18:00 303 28.3
2016-Jul-28 17:50 313 28.3
2016-Jul-28 17:30 345 28.3
2016-Jul-28 17:20 274 3 28.9
2016-Jul-28 17:00 320 30.0
2016-Jul-28 16:50 293 0 30.6
2016-Jul-28 16:40 014 31.1
2016-Jul-28 15:50 274 2 31.1
2016-Jul-28 15:40 278 31.1
2016-Jul-28 15:10 133 32.2
2016-Jul-28 15:00 141 32.2
2016-Jul-28 14:30 146 32.2
2016-Jul-28 14:20 099 32.2
2016-Jul-28 14:00 126 31.1
2016-Jul-28 13:50 157 31.1
2016-Jul-28 13:00 348 32.2
2016-Jul-28 12:50 051 31.7
2016-Jul-28 12:30 087 30.6
2016-Jul-28 12:20 091 30.6
2016-Jul-28 12:00 294 30.0
2016-Jul-28 11:50 283 28.9
2016-Jul-28 11:40 271 28.3
2016-Jul-28 11:30 304 27.8
2016-Jul-28 10:30 068 24.4
2016-Jul-28 09:40 304 22.2
2016-Jul-28 09:30 056 21.7
2016-Jul-28 09:20 289 21.1
2016-Jul-28 09:10 297 1 20.6
2016-Jul-28 09:00 309 20.6
2016-Jul-28 08:40 298 19.4
2016-Jul-28 08:10 013 2 18.3
2016-Jul-28 07:40 278 5 17.8
2016-Jul-28 07:30 086 6 17.8
2016-Jul-28 07:20 252 3 gusting 11 17.8
2016-Jul-28 07:10 350 3 17.2
2016-Jul-28 07:00 293 0 17.2
2016-Jul-28 06:40 288 2 gusting 11 16.7
2016-Jul-28 06:30 015 12 gusting 12 16.7
2016-Jul-28 06:20 333 4 16.7
2016-Jul-28 06:00 284 0 16.7
2016-Jul-28 05:50 307 0 16.7
2016-Jul-28 05:40 259 4 16.7
2016-Jul-28 05:20 276 2 gusting 12 16.7
2016-Jul-28 04:30 270 5 gusting 12 16.7
2016-Jul-28 04:00 304 2 gusting 13 16.7
2016-Jul-28 03:50 011 6 16.7
2016-Jul-28 03:40 264 7 gusting 13 16.7
2016-Jul-28 02:50 246 3 gusting 12 16.7
2016-Jul-28 02:40 269 8 gusting 13 16.7
2016-Jul-28 02:30 346 6 16.7
2016-Jul-28 02:10 279 3 gusting 15 16.7
2016-Jul-28 02:00 259 6 gusting 13 16.7
2016-Jul-28 01:50 257 6 gusting 11 16.7
2016-Jul-28 01:40 312 2 gusting 13 16.7
2016-Jul-28 01:30 340 5 gusting 14 17.2
2016-Jul-28 01:20 330 7 gusting 13 17.2
2016-Jul-28 01:10 266 6 gusting 13 17.2
2016-Jul-28 00:50 018 6 gusting 13 17.2
2016-Jul-28 00:40 013 4 17.2
2016-Jul-28 00:20 020 7 gusting 14 17.2
2016-Jul-27 23:50 316 4 gusting 12 17.2
2016-Jul-27 23:40 289 4 gusting 16 17.2
2016-Jul-27 23:20 302 8 gusting 13 17.2
2016-Jul-27 23:00 005 4 gusting 12 17.2
2016-Jul-27 22:30 271 6 gusting 15 17.2
2016-Jul-27 22:20 323 0 gusting 13 17.2
2016-Jul-27 22:00 283 6 gusting 12 17.8
2016-Jul-27 21:50 036 4 gusting 11 17.8
2016-Jul-27 21:40 264 1 gusting 12 17.8
2016-Jul-27 21:30 262 0 gusting 12 17.8
2016-Jul-27 21:10 288 1 gusting 13 17.8
2016-Jul-27 21:00 285 1 gusting 11 17.8
2016-Jul-27 20:40 337 2 gusting 13 18.3
2016-Jul-27 20:30 310 0 gusting 12 18.3
2016-Jul-27 20:20 276 18.3
2016-Jul-27 20:10 271 5 gusting 13 18.3
2016-Jul-27 19:40 292 4 gusting 11 19.4
2016-Jul-27 19:20 018 5 gusting 11 20.0
2016-Jul-27 18:20 086 1 gusting 13 22.2
2016-Jul-27 17:50 285 1 gusting 14 22.8
2016-Jul-27 17:40 273 0 gusting 10 22.8
2016-Jul-27 17:30 018 22.8
2016-Jul-27 17:10 280 5 gusting 14 22.8
2016-Jul-27 17:00 303 22.8
2016-Jul-27 16:50 259 0 gusting 10 22.8
2016-Jul-27 16:40 274 23.3
2016-Jul-27 16:20 011 2 gusting 13 23.3
2016-Jul-27 16:10 296 6 gusting 12 23.3
2016-Jul-27 16:00 290 6 gusting 16 23.3
2016-Jul-27 15:50 309 23.9
2016-Jul-27 15:30 303 0 gusting 10 23.9
2016-Jul-27 15:20 281 5 23.9
2016-Jul-27 15:10 301 0 gusting 11 23.9
2016-Jul-27 15:00 303 0 gusting 10 23.9
2016-Jul-27 14:50 270 23.9
2016-Jul-27 14:40 051 6 gusting 12 23.3
2016-Jul-27 14:10 328 5 gusting 11 23.9
2016-Jul-27 14:00 315 4 gusting 10 23.9
2016-Jul-27 13:50 281 1 gusting 11 23.9
2016-Jul-27 13:40 010 4 gusting 10 23.9
2016-Jul-27 13:20 284 1 gusting 10 23.9
2016-Jul-27 13:10 304 0 24.4
2016-Jul-27 12:50 323 1 23.3
2016-Jul-27 12:40 238 22.8
2016-Jul-27 12:10 239 8 22.2
2016-Jul-27 12:00 349 0 21.7